Simultaneous Nadir Overpasses (SNOs) Predictions

Prediction of SNOs between AQUA and METOP-B Satellite Orbit:

Table of predicted SNOs for the next 14.0 days since TLE Epoch: 2/23/2018
Index Date (AQUA) Time (AQUA) Lat,Lon (AQUA) SZA (AQUA ) Date (METOP-B) Time (METOP-B) Lat,Lon (METOP-B) SZA (METOP-B ) Distance(km) Time Diff (sec)
1 02/24/2018 02:51:03 73.17, 132.88 82.73 02/24/2018 02:49:57 73.15, 130.12 82.86 89.04 66
2 02/24/2018 03:40:42 -73.86, -60.95 96.54 02/24/2018 03:40:24 -73.87, -60.90 96.52 2.32 18
3 02/24/2018 04:30:11 73.94, 106.50 83.55 02/24/2018 04:31:03 73.93, 106.56 83.52 2.96 52
4 02/26/2018 22:25:24 73.40,-161.15 81.93 02/26/2018 22:24:15 73.34,-163.05 81.97 60.79 69
5 02/26/2018 23:14:59 -73.87, 5.46 97.58 02/26/2018 23:14:46 -73.87, 5.49 97.58 1.00 13
6 02/27/2018 00:04:27 73.91, 173.01 82.46 02/27/2018 00:05:25 73.92, 172.95 82.46 1.95 58
7 03/01/2018 17:59:43 73.58, -95.10 81.06 03/01/2018 17:58:32 73.53, -96.22 81.07 35.58 71
8 03/01/2018 18:49:15 -73.89, 71.86 98.63 03/01/2018 18:49:07 -73.86, 71.87 98.66 3.75 8
9 03/01/2018 19:38:43 73.94,-120.61 81.42 03/01/2018 19:39:45 73.96,-120.55 81.42 2.72 62
10 03/04/2018 13:34:03 73.77, -29.07 80.18 03/04/2018 13:32:50 73.72, -29.37 80.15 11.01 73
11 03/04/2018 14:23:31 -73.86, 138.36 99.74 03/04/2018 14:23:28 -73.89, 138.37 99.71 3.53 3
12 03/04/2018 15:12:59 73.92, -54.12 80.31 03/04/2018 15:14:07 73.94, -54.17 80.33 3.37 68
13 03/07/2018 09:08:20 73.80, 37.29 79.12 03/07/2018 09:07:10 73.80, 37.24 79.14 1.63 70
14 03/07/2018 09:57:48 -73.89,-155.27 100.80 03/07/2018 09:57:50 -73.88,-155.25 100.81 1.55 2




NCC Satellite Simultaneous Nadir Overpasses (SNOs) Prediction Service
